User: anonymous   Login
Location: Unspecified
(0.0000°N, 0.0000°E)
Time: 19:26:54
(UTC+01:00)
Language:

ARIANE 5 R/B - Orbit

View from above orbital plane
View from above orbital plane
View from above satellite
View from above satellite

Ground track
Ground track

The orbit data is extracted from the following two-line orbital elements,

1 28379U 04027B   15022.39476531 -.00000006  00000-0  14017-2 0  7563
2 28379 006.8444 269.1881 7299972 205.2452 010.6261 02.07919337 79897
Epoch (UTC): 22 January 2015 09:28:27
Eccentricity: 0.7299972
inclination: 6.8444°
perigee height: 623 km
apogee height: 38480 km
right ascension of ascending node: 269.1881°
argument of perigee: 205.2452°
revolutions per day: 2.07919337
mean anomaly at epoch: 10.6261°
orbit number at epoch: 7989

The dashed part of the orbit path shows where the satellite is in the earth's shadow,  

DLR